Wetbulb
58.69 59.65 62.96 64.38 65.95 65.37 64.04 62.20 59.05 54.67 51.97 49.10 48.69 49.13 49.67 49.51 49.84 50.63 51.45 51.75 52.02 51.56 51.62 51.50 50.99 50.95 50.91 50.78 50.29 49.88 48.96 48.94 48.11 48.39 48.65 48.81 48.19 48.03 47.66 48.38 48.99 48.19 48.70
55.48 59.31 60.89 62.90 63.24 62.94 61.70 58.90 58.33 53.16 52.00 50.50 49.67 50.19 49.71 49.81 50.94 50.65 50.52 51.09 51.42 51.42 51.00 51.34 50.64 50.32 50.18 49.45 49.00 49.07 48.66 48.51 48.02 47.26 45.66 44.55 47.11 47.74 47.34 48.24 47.39 47.01 47.90
52.42 55.56 56.76 58.22 60.01 59.81 57.93 56.95 54.28 52.68 51.25 49.87 48.73 48.64 49.60 49.09 49.15 49.35 50.07 50.20 50.36 50.74 50.79 50.82 50.65 50.16 49.79 49.36 48.48 48.05 47.90 47.46 46.83 46.05 46.91 43.30 42.24 43.01 47.12 46.49 46.74 46.68 47.05
51.00 54.32 55.72 53.80 55.21 57.01 55.49 54.36 53.31 51.01 49.49 49.44 50.02 49.95 50.50 49.79 50.69 51.19 51.22 50.99 50.34 50.31 50.04 49.87 49.49 49.29 48.90 48.24 48.10 47.51 47.60 47.05 46.20 45.83 45.47 45.76 44.75 41.09 40.42 44.92 45.36 46.32 45.06
49.38 52.51 53.85 52.36 52.57 52.00 52.33 52.95 50.93 49.40 49.44 49.54 50.98 50.81 49.77 49.80 49.89 50.23 49.74 50.03 50.04 49.25 48.73 48.79 48.42 48.08 47.98 47.82 47.32 46.70 46.27 46.73 46.51 45.55 44.89 44.08 43.59 43.01 40.42 38.63 41.57 43.53 44.62
46.92 49.36 50.79 48.68 48.52 49.99 50.20 49.10 49.01 48.54 48.61 48.79 48.77 49.53 49.41 49.09 49.68 49.66 49.91 49.65 49.25 48.77 47.61 47.57 48.11 47.75 47.37 46.82 46.80 46.53 45.54 45.33 44.76 44.70 44.11 43.35 42.07 41.65 40.59 39.03 39.94 40.21 41.97
46.18 45.49 46.25 46.56 46.55 47.50 47.81 47.69 47.99 46.63 47.22 47.72 48.19 48.69 49.10 48.87 49.25 49.27 49.57 48.11 47.58 47.28 46.50 46.55 46.43 46.45 46.19 45.98 45.94 45.32 44.85 44.44 43.73 43.96 43.48 43.39 42.71 42.99 41.75 40.16 39.10 38.61 40.97
44.25 44.43 45.20 46.27 46.85 46.80 46.59 46.81 46.72 45.79 46.69 47.35 47.56 48.05 48.18 48.56 48.17 47.92 47.31 46.64 46.43 46.31 45.72 45.38 45.20 44.58 44.39 44.43 44.28 44.24 43.88 43.33 42.62 42.09 41.91 41.61 41.88 41.99 41.40 40.00 38.58 36.56 38.33
42.87 43.50 44.37 45.43 45.70 46.04 46.23 46.54 46.39 46.06 46.68 46.84 46.93 46.92 47.12 46.56 45.80 45.29 45.58 45.64 45.42 44.96 43.85 43.45 43.34 43.11 43.07 42.83 42.45 42.30 41.93 41.59 41.36 41.08 40.97 40.42 40.87 41.12 41.02 40.68 40.16 37.60 34.58
41.93 42.70 43.43 44.12 44.73 45.15 45.17 45.93 46.26 45.47 44.99 44.87 44.95 44.31 44.17 44.46 44.20 44.62 44.29 44.25 43.60 43.14 42.86 42.72 42.51 42.30 41.94 41.64 41.21 40.99 40.95 40.03 40.41 40.27 39.94 40.12 40.29 40.31 40.56 40.20 40.04 39.55 37.48
41.23 41.25 41.56 42.46 43.09 43.64 44.35 44.00 44.40 44.16 43.70 43.71 43.58 43.50 42.95 43.07 43.54 43.64 43.16 43.19 42.56 42.20 41.87 41.46 41.20 40.95 41.03 41.17 40.33 40.12 39.88 39.30 39.71 39.97 39.46 39.34 40.40 40.00 40.33 40.43 40.14 39.36 39.33
40.88 40.78 41.02 41.84 42.39 42.41 42.99 43.04 43.25 43.40 43.14 42.66 42.60 42.57 42.84 42.94 43.25 42.95 42.43 41.93 41.75 41.09 40.74 40.40 40.22 40.08 40.01 40.28 39.64 39.27 39.58 38.79 38.51 38.94 39.26 39.23 40.14 40.15 40.84 40.28 39.76 39.66 40.20
40.23 40.07 40.56 41.16 41.41 41.45 41.68 41.77 41.89 41.52 41.67 42.18 42.09 42.15 42.16 42.38 42.26 41.72 40.99 40.45 40.27 40.27 40.23 39.70 39.34 39.29 39.48 39.34 39.55 39.16 38.66 38.53 38.57 38.75 38.94 39.22 39.83 39.25 39.84 40.11 39.82 40.15 40.08
40.10 40.04 39.60 39.63 39.83 40.34 40.60 40.66 40.91 41.65 41.28 41.45 41.54 41.55 41.65 41.40 41.10 40.29 39.87 39.76 39.70 39.30 39.65 39.42 38.83 38.72 38.77 38.55 38.40 38.22 38.19 38.93 39.39 39.79 39.92 40.03 39.83 39.50 40.00 40.17 40.15 40.22 38.68
39.33 39.63 38.26 38.12 38.62 38.99 39.74 40.29 40.43 40.96 41.26 41.22 41.54 41.34 41.25 40.64 39.71 39.48 39.35 39.16 39.14 39.23 38.74 38.31 38.74 38.57 37.92 37.85 38.89 40.09 40.35 39.87 39.48 40.03 40.26 40.60 41.52 43.83 44.19 41.42 39.49 38.79 38.83
39.76 38.88 37.83 37.75 38.43 39.21 39.62 40.15 40.28 40.53 41.19 40.79 40.61 40.72 40.37 39.81 39.38 38.96 38.74 38.75 38.81 38.85 38.58 38.28 37.36 36.59 37.07 39.87 41.97 41.39 39.87 40.35 40.36 40.17 41.07 42.09 43.41 43.38 44.67 45.10 45.68 44.31 41.35
39.10 38.08 37.94 38.38 38.73 39.45 39.79 39.95 40.13 40.11 39.92 39.95 39.96 39.57 39.42 39.24 39.13 38.54 38.09 38.29 38.34 38.20 37.58 37.13 36.50 36.59 37.51 40.18 41.53 42.30 41.03 40.07 40.53 40.61 40.29 40.26 40.80 42.63 41.72 43.38 44.50 43.73 44.46
38.22 37.65 38.01 38.37 39.00 39.47 39.68 39.60 39.48 39.49 39.36 39.17 39.12 39.23 38.85 38.48 38.38 37.71 37.65 37.78 37.69 37.17 36.57 35.86 36.37 36.53 36.61 39.79 41.56 42.42 40.56 39.77 39.05 39.49 40.14 40.62 40.98 41.82 41.15 40.30 39.74 40.40 41.51
38.02 38.15 39.00 38.88 38.85 39.35 39.16 39.26 38.89 38.73 38.66 39.12 39.14 39.19 38.50 37.91 37.26 36.95 37.25 37.54 36.60 36.33 35.58 35.99 35.90 35.45 35.33 39.18 41.33 40.99 38.91 39.54 39.53 40.20 41.11 40.97 41.28 43.07 44.09 40.87 40.47 40.17 40.28
38.01 37.81 38.47 38.52 39.15 38.57 39.12 39.32 38.68 38.28 38.63 38.86 39.00 38.66 37.80 37.01 36.88 37.15 36.92 36.56 35.45 34.58 35.43 35.18 35.43 36.16 35.86 38.82 40.77 40.70 38.43 38.30 39.19 39.75 39.75 41.98 42.23 43.94 43.89 41.43 41.26 39.43 39.77
37.89 38.26 38.56 38.54 38.56 38.65 38.54 38.42 37.97 38.07 38.66 38.58 38.53 38.22 37.59 36.96 37.06 36.55 36.17 35.18 34.67 34.43 34.47 34.07 35.09 35.84 36.95 37.56 40.70 41.39 38.75 39.05 38.78 38.78 39.20 40.18 41.84 42.45 43.03 43.21 40.43 39.10 40.85
37.61 37.77 37.80 37.83 37.88 38.02 38.18 37.90 37.59 38.53 38.44 38.27 37.60 37.01 37.01 36.62 36.78 35.81 35.49 34.78 34.26 33.70 33.43 33.77 34.54 36.47 37.06 39.12 39.47 41.07 41.19 41.19 39.25 38.89 39.48 39.50 41.28 42.49 42.52 41.11 40.56 40.76 40.43
37.31 37.61 37.90 37.66 37.70 37.90 37.75 38.05 38.39 38.32 38.11 37.57 36.87 36.60 36.43 36.45 36.49 35.12 34.45 33.85 33.86 33.22 33.25 33.73 33.80 34.47 36.92 37.09 39.70 40.37 40.92 41.82 40.25 40.10 40.30 41.63 40.66 40.05 39.21 38.52 39.05 39.38 36.47
37.03 37.39 37.58 37.27 37.35 37.72 37.89 38.09 38.20 38.22 37.64 37.11 36.51 36.39 35.70 37.52 36.01 34.80 34.50 33.61 33.31 33.35 33.54 34.07 34.79 35.16 35.59 36.81 37.34 37.66 38.81 40.70 40.25 39.91 38.76 38.46 38.16 37.53 37.05 35.88 35.12 34.91 35.20
37.10 37.62 37.27 37.11 37.31 37.62 37.96 38.24 38.37 38.03 37.37 36.26 35.62 35.46 35.91 35.41 34.13 34.07 33.24 33.95 35.29 35.46 34.59 34.80 34.48 33.65 34.22 35.87 38.97 39.07 38.16 39.14 38.92 38.62 36.58 34.48 33.62 33.24 33.67 34.30 34.35 34.17 34.26
36.95 36.86 36.78 36.87 36.97 37.29 37.59 37.82 37.99 36.87 35.79 35.34 34.99 35.07 35.46 34.08 33.42 32.42 32.36 35.36 36.43 37.14 37.16 37.22 36.12 35.80 37.71 39.14 39.50 39.65 40.12 38.96 38.64 35.49 32.64 31.94 32.39 32.25 32.66 32.65 33.41 33.50 33.09
MSLP
1012.19 1012.32 1012.71 1013.29 1013.71 1014.37 1015.00 1015.85 1016.63 1017.50 1018.17 1018.92 1019.54 1020.17 1020.24 1020.70 1021.03 1021.27 1021.38 1021.59 1021.77 1022.07 1022.27 1022.45 1022.66 1022.83 1022.83 1022.92 1023.17 1023.43 1023.51 1023.59 1023.59 1023.27 1022.92 1022.88 1022.97 1022.88 1022.85 1022.99 1022.89 1022.84 1022.84
1011.81 1011.98 1012.31 1012.94 1013.78 1014.33 1014.99 1015.79 1016.65 1017.36 1017.96 1018.42 1019.12 1019.57 1020.01 1020.61 1020.78 1021.10 1021.31 1021.47 1021.62 1021.83 1022.02 1022.20 1022.45 1022.75 1022.87 1023.04 1023.23 1023.35 1023.44 1023.60 1023.72 1023.30 1023.39 1022.88 1022.67 1022.66 1022.76 1022.44 1022.56 1022.53 1022.71
1011.39 1012.01 1012.42 1012.90 1013.70 1014.21 1014.97 1015.74 1016.28 1017.25 1017.77 1018.45 1019.07 1019.69 1020.25 1020.69 1020.89 1021.03 1021.11 1021.19 1021.48 1021.79 1021.98 1022.11 1022.24 1022.46 1022.76 1022.86 1023.10 1023.31 1023.42 1023.32 1023.66 1023.58 1023.35 1023.11 1022.70 1022.82 1022.30 1022.21 1022.37 1022.29 1022.19
1011.30 1011.72 1012.34 1013.03 1013.55 1014.29 1015.16 1015.82 1016.46 1016.89 1017.58 1018.13 1018.58 1018.90 1019.31 1019.84 1019.97 1020.34 1020.76 1021.04 1021.44 1021.58 1021.85 1022.08 1022.34 1022.47 1022.67 1022.77 1022.92 1023.15 1023.22 1023.30 1023.17 1023.57 1023.53 1023.44 1023.39 1023.00 1021.93 1022.27 1022.05 1021.96 1022.03
1011.59 1011.89 1012.36 1012.92 1013.59 1014.39 1015.04 1015.76 1016.29 1016.82 1017.45 1018.02 1018.43 1018.81 1019.31 1019.86 1020.29 1020.58 1020.81 1021.10 1021.46 1021.72 1021.87 1021.97 1022.12 1022.27 1022.45 1022.53 1022.69 1022.88 1023.04 1023.17 1023.15 1023.27 1023.36 1023.44 1023.48 1023.44 1022.97 1021.41 1021.61 1021.96 1021.71
1011.92 1012.23 1012.68 1013.20 1013.87 1014.52 1015.03 1015.61 1016.11 1016.84 1017.57 1018.14 1018.70 1019.11 1019.48 1019.88 1020.26 1020.59 1020.81 1021.19 1021.52 1021.72 1021.83 1021.95 1022.06 1022.23 1022.42 1022.57 1022.74 1022.90 1023.05 1023.19 1023.28 1023.25 1023.22 1023.01 1022.84 1022.58 1022.62 1021.89 1021.37 1021.08 1021.20
1012.35 1012.76 1013.14 1013.58 1014.11 1014.58 1015.13 1015.66 1016.30 1017.10 1017.76 1018.34 1018.85 1019.25 1019.69 1020.03 1020.19 1020.45 1020.78 1021.19 1021.52 1021.80 1021.97 1022.02 1022.13 1022.33 1022.62 1022.77 1022.92 1022.99 1023.02 1023.04 1023.04 1022.89 1022.80 1022.89 1022.77 1022.61 1022.49 1022.18 1021.31 1020.92 1020.69
1012.87 1013.21 1013.56 1013.95 1014.33 1014.76 1015.32 1015.91 1016.61 1017.35 1017.92 1018.45 1018.96 1019.43 1019.89 1020.21 1020.48 1020.79 1021.03 1021.24 1021.41 1021.70 1022.07 1022.23 1022.35 1022.50 1022.65 1022.74 1022.80 1022.79 1022.77 1022.82 1022.85 1022.83 1022.76 1022.62 1022.53 1022.53 1022.35 1022.02 1021.63 1020.60 1019.79
1013.50 1013.76 1014.07 1014.39 1014.77 1015.25 1015.85 1016.29 1016.91 1017.58 1018.19 1018.71 1019.28 1019.81 1020.19 1020.47 1020.76 1020.97 1021.14 1021.39 1021.67 1021.93 1022.21 1022.35 1022.43 1022.54 1022.58 1022.64 1022.73 1022.69 1022.61 1022.64 1022.63 1022.48 1022.37 1022.28 1022.11 1022.05 1021.91 1021.76 1021.53 1021.12 1019.66
1014.15 1014.45 1014.76 1015.12 1015.53 1015.94 1016.39 1016.89 1017.37 1017.95 1018.64 1019.21 1019.72 1020.15 1020.41 1020.69 1021.06 1021.33 1021.47 1021.63 1021.82 1021.98 1022.12 1022.24 1022.33 1022.40 1022.43 1022.47 1022.58 1022.53 1022.46 1022.42 1022.35 1022.22 1021.88 1021.71 1021.63 1021.44 1021.36 1021.21 1020.99 1020.76 1020.15
1014.80 1015.23 1015.64 1015.99 1016.34 1016.69 1017.04 1017.49 1018.01 1018.52 1019.09 1019.59 1020.01 1020.36 1020.80 1021.08 1021.22 1021.35 1021.57 1021.72 1021.90 1022.04 1022.20 1022.33 1022.40 1022.41 1022.41 1022.40 1022.41 1022.25 1022.12 1021.96 1021.68 1021.64 1021.44 1021.14 1021.01 1020.72 1020.52 1020.43 1020.27 1019.98 1019.70
1015.47 1015.93 1016.34 1016.58 1016.89 1017.21 1017.65 1018.08 1018.53 1018.91 1019.47 1019.96 1020.28 1020.59 1020.87 1021.13 1021.31 1021.49 1021.64 1021.78 1021.96 1022.20 1022.24 1022.27 1022.24 1022.19 1022.09 1022.01 1021.94 1021.72 1021.51 1021.26 1020.98 1020.80 1020.67 1020.35 1020.24 1019.88 1019.67 1019.54 1019.23 1018.86 1018.70
1015.94 1016.46 1016.82 1017.08 1017.41 1017.76 1018.15 1018.54 1018.99 1019.45 1019.87 1020.14 1020.40 1020.70 1020.94 1021.16 1021.39 1021.62 1021.83 1021.92 1021.94 1021.95 1021.96 1022.03 1021.98 1021.91 1021.83 1021.66 1021.45 1021.22 1020.96 1020.69 1020.36 1020.08 1019.82 1019.60 1019.40 1018.96 1018.69 1018.49 1018.17 1017.92 1017.72
1016.10 1016.64 1017.11 1017.60 1017.99 1018.32 1018.72 1019.12 1019.47 1019.77 1020.08 1020.31 1020.61 1020.85 1021.05 1021.26 1021.43 1021.61 1021.72 1021.81 1021.89 1021.89 1021.78 1021.71 1021.68 1021.56 1021.40 1021.26 1021.00 1020.61 1020.25 1019.92 1019.62 1019.24 1019.00 1018.64 1018.31 1018.00 1017.73 1017.40 1017.03 1016.81 1016.82
1016.23 1016.82 1017.46 1018.00 1018.47 1018.87 1019.23 1019.48 1019.69 1019.94 1020.28 1020.47 1020.64 1020.82 1021.03 1021.25 1021.44 1021.55 1021.60 1021.65 1021.67 1021.65 1021.58 1021.45 1021.25 1021.15 1021.03 1020.65 1020.34 1019.89 1019.36 1018.99 1018.60 1018.27 1017.94 1017.61 1017.35 1017.06 1016.51 1016.16 1016.08 1016.28 1015.83
1016.24 1016.99 1017.62 1018.31 1018.75 1019.00 1019.24 1019.58 1019.92 1020.15 1020.27 1020.43 1020.67 1020.94 1021.15 1021.27 1021.29 1021.27 1021.31 1021.42 1021.43 1021.28 1021.15 1020.96 1020.91 1020.72 1020.46 1020.12 1019.70 1019.23 1018.57 1018.07 1017.67 1017.21 1016.97 1016.61 1016.42 1016.04 1015.65 1015.19 1014.69 1014.48 1014.31
1016.23 1017.11 1017.78 1018.29 1018.70 1019.04 1019.43 1019.67 1019.90 1020.21 1020.43 1020.64 1020.81 1020.95 1020.98 1020.95 1021.00 1021.10 1021.15 1021.10 1021.02 1020.99 1020.87 1020.68 1020.51 1020.23 1019.93 1019.56 1018.99 1018.40 1017.79 1017.32 1016.97 1016.65 1016.33 1015.92 1015.57 1015.29 1014.95 1014.58 1014.21 1013.90 1013.63
1016.56 1017.28 1017.92 1018.54 1019.01 1019.34 1019.59 1019.79 1020.02 1020.27 1020.49 1020.67 1020.69 1020.75 1020.81 1020.81 1020.89 1020.95 1020.93 1020.91 1020.91 1020.64 1020.54 1020.36 1020.19 1019.85 1019.45 1018.90 1018.30 1017.66 1016.94 1016.60 1016.30 1015.95 1015.62 1015.24 1014.74 1014.35 1014.12 1013.82 1013.41 1013.02 1012.77
1016.75 1017.50 1018.18 1018.71 1019.15 1019.46 1019.73 1019.92 1020.20 1020.42 1020.50 1020.50 1020.59 1020.68 1020.79 1020.75 1020.75 1020.75 1020.69 1020.64 1020.60 1020.38 1020.21 1020.10 1019.75 1019.32 1018.69 1018.24 1017.63 1016.89 1016.35 1015.93 1015.58 1015.13 1014.85 1014.40 1013.95 1013.45 1013.04 1012.58 1012.27 1012.19 1011.88
1017.36 1017.96 1018.55 1019.02 1019.35 1019.73 1019.87 1020.03 1020.21 1020.37 1020.43 1020.54 1020.60 1020.74 1020.76 1020.73 1020.69 1020.63 1020.50 1020.51 1020.48 1020.25 1020.03 1019.65 1019.21 1018.71 1018.10 1017.59 1017.08 1016.27 1015.69 1015.33 1014.81 1014.19 1013.97 1013.71 1013.20 1012.77 1012.14 1011.76 1011.44 1011.17 1011.07
1018.00 1018.55 1018.89 1019.19 1019.53 1019.79 1019.96 1020.12 1020.31 1020.34 1020.42 1020.56 1020.64 1020.61 1020.60 1020.62 1020.58 1020.57 1020.51 1020.43 1020.26 1020.07 1019.66 1019.13 1018.49 1018.04 1017.59 1017.05 1016.43 1015.75 1014.99 1014.57 1014.03 1013.59 1013.29 1012.92 1012.65 1012.04 1011.37 1010.99 1010.95 1010.82 1010.49
1018.55 1018.91 1019.16 1019.48 1019.81 1019.96 1020.11 1020.20 1020.26 1020.33 1020.42 1020.44 1020.47 1020.56 1020.58 1020.63 1020.52 1020.48 1020.31 1020.18 1020.01 1019.65 1019.12 1018.53 1017.92 1017.42 1016.91 1016.46 1015.87 1015.19 1014.38 1013.79 1013.42 1013.02 1012.75 1012.50 1011.79 1011.21 1010.67 1010.45 1010.39 1010.03 1009.68
1018.84 1019.17 1019.36 1019.73 1019.95 1020.03 1020.09 1020.14 1020.26 1020.36 1020.41 1020.43 1020.42 1020.50 1020.47 1020.46 1020.39 1020.27 1020.07 1019.86 1019.63 1019.24 1018.66 1018.11 1017.51 1016.87 1016.47 1015.97 1015.41 1014.70 1014.06 1013.42 1012.86 1012.45 1011.99 1011.59 1011.45 1011.14 1010.69 1010.47 1010.00 1009.57 1009.65
1019.02 1019.34 1019.61 1019.76 1019.94 1020.16 1020.17 1020.21 1020.34 1020.39 1020.31 1020.32 1020.36 1020.40 1020.34 1020.08 1020.17 1020.18 1020.00 1019.68 1019.26 1018.78 1018.16 1017.57 1016.94 1016.45 1015.83 1015.37 1014.82 1014.15 1013.59 1013.02 1012.55 1012.10 1011.71 1011.45 1010.93 1010.76 1010.35 1010.10 1009.90 1009.54 1009.04
1019.27 1019.54 1019.67 1019.82 1019.93 1020.07 1020.18 1020.32 1020.35 1020.30 1020.29 1020.44 1020.53 1020.45 1020.29 1020.15 1020.12 1020.07 1019.86 1019.35 1018.89 1018.45 1017.66 1017.18 1016.74 1016.09 1015.42 1014.83 1014.01 1013.34 1012.79 1012.42 1012.00 1011.50 1011.29 1011.04 1010.69 1010.31 1009.95 1009.62 1009.42 1009.06 1008.78
1019.45 1019.65 1019.83 1019.95 1020.09 1020.25 1020.38 1020.38 1020.42 1020.47 1020.56 1020.56 1020.62 1020.52 1020.27 1020.19 1020.10 1019.85 1019.29 1018.94 1018.49 1017.86 1017.48 1016.92 1016.33 1015.75 1015.11 1014.25 1013.52 1012.92 1012.50 1012.20 1011.67 1011.31 1011.09 1010.71 1010.36 1009.90 1009.51 1009.20 1008.80 1008.56 1008.26
Wind_Speed
6 7 11 10 11 10 12 13 13 12 10 7 6 5 5 4 4 4 7 7 7 7 6 4 5 5 4 4 2 2 1 1 3 3 4 2 3 1 5 2 1 2 1
9 9 11 12 12 12 12 12 12 13 11 8 4 3 4 3 3 4 5 6 7 8 7 6 5 5 3 4 4 3 2 1 0 1 0 3 2 2 4 6 4 4 3
9 9 9 11 11 13 13 13 14 15 11 10 7 5 4 3 3 3 4 7 8 7 7 6 5 5 4 4 4 4 5 3 2 2 0 2 3 4 4 3 5 6 4
6 6 10 11 11 10 11 12 13 14 12 12 8 9 6 5 4 4 3 3 6 6 5 5 5 4 4 5 4 4 4 4 4 2 3 4 4 5 7 3 5 7 9
4 8 10 10 9 10 11 12 13 13 12 11 8 6 5 2 2 2 3 1 2 1 4 5 5 5 4 4 5 5 5 4 3 3 3 5 4 6 7 11 7 7 9
1 3 5 9 9 9 10 11 13 11 10 8 6 6 5 4 3 3 3 2 2 2 3 2 2 2 2 3 3 3 4 4 4 4 5 6 6 7 7 10 12 13 9
3 5 8 9 10 11 10 9 11 9 8 7 6 5 4 4 4 3 2 3 2 2 3 4 4 3 3 2 2 3 5 5 5 6 6 6 7 8 8 10 12 13 11
1 4 7 9 10 11 10 10 10 9 7 7 6 4 4 3 3 3 3 3 3 4 4 4 4 4 3 3 3 3 4 5 5 8 7 7 7 7 8 10 11 13 13
3 5 6 8 9 9 9 11 11 10 8 8 7 7 6 6 6 6 5 3 4 4 4 4 4 3 2 2 3 4 6 6 6 8 9 8 8 8 8 9 9 11 14
6 7 8 9 8 10 10 11 11 11 10 9 8 6 7 6 6 5 5 5 5 4 4 3 2 2 3 4 4 5 6 7 7 7 10 10 8 9 8 9 10 10 12
7 8 9 9 10 10 11 11 11 11 9 8 7 7 6 6 5 5 4 4 4 3 2 1 3 4 5 6 6 7 8 10 10 9 10 12 11 9 9 9 9 10 10
8 9 9 10 10 10 10 10 8 8 7 6 6 6 6 5 4 4 4 3 1 0 2 3 5 6 7 7 8 10 10 11 12 12 12 13 10 14 12 10 13 13 14
9 8 8 9 9 9 9 8 8 8 6 6 6 5 4 3 3 2 1 1 2 3 3 5 6 7 8 9 10 11 12 12 13 13 13 14 15 14 12 12 12 11 11
9 8 7 7 7 7 8 8 7 6 6 6 5 4 3 3 2 2 3 3 2 4 5 6 7 8 9 9 10 11 12 13 13 14 15 16 16 15 15 14 15 13 11
10 9 8 7 7 7 7 6 6 6 5 6 4 3 1 2 3 4 3 3 4 5 6 7 8 8 8 7 10 12 14 16 16 16 15 15 17 22 22 11 10 12 11
9 9 8 8 8 7 7 6 5 5 4 4 2 1 2 3 4 4 4 4 5 6 7 8 8 9 7 14 21 20 15 16 16 15 14 13 18 19 22 23 24 18 13
10 10 10 9 8 6 6 5 5 4 4 1 1 3 4 4 4 4 4 5 6 7 8 8 8 9 11 19 22 22 14 12 11 11 10 11 10 16 14 20 23 21 22
10 10 9 8 7 5 5 5 5 4 2 2 3 3 4 5 5 5 5 6 6 7 8 8 8 11 11 20 21 21 12 9 10 11 11 12 15 15 14 13 13 14 16
9 9 9 7 7 6 5 5 4 3 1 2 3 4 4 5 4 5 6 6 6 7 7 8 11 13 13 18 19 19 11 11 13 12 14 14 16 19 24 15 13 12 12
10 10 8 6 7 5 4 4 2 0 3 3 4 4 4 4 4 5 6 5 6 7 7 10 12 14 13 16 18 18 9 10 9 13 12 21 17 20 21 13 12 12 11
10 8 7 7 5 4 3 2 0 3 3 3 3 3 3 4 4 5 5 5 6 7 9 11 11 11 11 12 19 21 10 8 10 8 8 6 16 19 22 19 9 8 12
8 7 7 5 3 3 2 0 3 2 2 3 3 3 4 3 4 5 5 6 7 8 10 11 10 9 10 13 16 21 22 18 10 10 5 10 18 22 18 14 18 21 16
7 4 5 4 2 2 1 1 2 3 3 2 3 4 4 4 4 5 6 6 7 8 9 8 9 9 9 9 16 21 20 20 12 8 13 18 15 19 15 16 19 17 5
5 4 4 3 3 1 1 1 2 1 1 2 4 4 5 6 5 4 5 6 7 7 8 8 8 5 9 8 10 9 8 13 9 14 6 12 14 16 13 11 8 7 6
4 3 3 2 1 1 1 1 2 2 3 4 4 5 4 5 5 5 5 7 8 8 8 7 7 8 9 9 17 16 9 9 11 13 7 7 8 8 8 7 7 6 6
3 3 2 2 2 2 3 4 4 4 4 4 4 5 5 5 5 6 8 11 14 15 16 17 14 8 17 22 21 21 21 20 19 8 8 8 8 8 8 8 8 6 8
Wind_Direction
195 171 178 180 172 159 162 163 163 153 152 145 149 155 171 164 174 185 186 185 183 183 182 178 182 188 200 195 178 132 147 108 10 322 338 313 329 267 180 3 178 356 12
192 195 186 181 177 183 166 166 166 161 169 158 144 145 152 170 173 183 196 199 196 196 196 197 198 200 200 195 193 191 171 162 319 50 304 343 299 110 221 304 271 300 284
206 196 193 195 179 179 173 172 166 169 165 154 129 104 104 103 162 196 212 213 210 209 213 209 211 209 214 216 206 206 209 218 163 191 318 285 288 323 289 275 285 291 279
228 204 190 197 188 172 164 160 164 171 166 162 158 163 173 170 195 199 206 205 215 224 229 236 229 225 212 216 211 202 210 203 210 196 226 248 274 286 297 245 283 274 293
205 205 190 182 175 157 160 161 167 166 167 174 177 169 161 122 96 162 184 144 96 203 224 221 214 216 213 222 213 194 205 212 231 226 201 225 234 250 262 292 284 267 278
174 164 156 149 150 150 154 158 163 161 161 164 158 163 164 162 174 160 158 130 107 83 72 105 165 176 188 192 188 192 210 223 236 234 230 239 254 267 259 274 284 286 286
171 155 157 156 149 153 151 147 149 143 146 156 161 158 178 192 201 173 153 153 139 122 106 110 118 113 109 120 157 207 224 227 238 245 252 249 250 261 266 275 281 282 283
141 167 161 160 153 147 142 136 138 130 131 132 131 133 142 133 115 137 141 132 135 135 134 121 117 120 140 166 201 240 257 256 257 262 256 264 260 256 253 259 281 284 283
118 135 137 140 131 128 125 128 123 109 110 113 113 110 117 125 130 129 123 115 113 127 123 128 143 167 207 251 259 271 276 277 276 270 268 263 264 263 261 257 256 264 281
106 106 108 111 106 108 107 109 112 116 114 109 113 119 120 114 110 116 123 131 130 133 154 174 207 253 279 282 276 274 272 271 271 268 266 267 267 268 264 258 255 247 259
111 107 105 104 107 107 109 110 110 113 115 122 120 111 108 118 127 126 128 137 155 179 205 258 290 282 282 284 276 271 271 270 274 268 268 272 274 273 270 262 256 251 246
115 115 116 116 114 110 107 107 111 111 106 101 110 117 123 115 111 131 156 175 212 267 284 274 278 286 284 282 277 279 280 278 277 277 270 274 279 279 271 262 261 257 255
125 125 125 124 120 111 109 105 98 101 110 119 119 115 112 129 143 164 201 256 245 248 269 282 282 285 284 282 277 276 277 277 275 276 271 274 278 276 270 265 264 263 260
147 142 135 121 116 113 108 108 106 111 119 116 120 130 141 156 208 240 245 240 249 279 284 283 280 278 282 282 282 278 279 276 274 273 269 271 273 270 271 267 263 261 267
164 159 146 143 128 117 112 113 119 125 130 131 128 119 171 220 239 255 255 256 272 284 283 282 283 291 290 284 289 286 285 283 282 277 272 269 269 267 266 255 242 240 241
168 160 152 141 137 140 139 127 124 129 127 105 96 8 306 274 266 271 254 270 284 293 296 295 296 294 288 294 299 297 292 288 283 280 275 273 273 282 285 285 286 288 276
169 156 154 153 151 143 137 140 143 123 115 173 275 284 281 296 298 288 276 286 297 299 296 296 296 292 300 300 299 297 292 286 284 285 281 279 276 278 283 287 288 292 290
146 149 148 140 133 135 136 122 120 142 177 247 285 315 309 294 299 281 280 286 290 300 300 296 291 296 297 299 301 297 293 292 284 279 276 272 275 275 273 265 265 265 272
145 139 137 134 139 134 122 122 141 154 208 315 313 327 323 301 289 277 283 295 297 303 300 295 299 300 299 298 299 308 298 293 291 288 278 276 275 276 279 276 278 272 261
127 133 134 126 124 125 135 134 119 195 280 298 313 314 296 280 287 293 306 306 302 296 302 303 298 294 294 294 305 306 298 290 280 283 290 283 286 291 290 280 285 288 295
126 124 122 121 131 144 139 133 320 282 292 295 296 326 337 311 303 301 302 305 307 304 307 305 301 296 290 291 301 308 305 300 295 288 288 272 282 289 288 296 302 287 280
126 121 120 124 123 147 159 155 291 323 322 332 336 327 318 315 306 304 311 315 314 312 309 305 306 304 297 293 301 302 308 309 311 303 292 289 280 288 299 315 307 302 305
130 136 129 124 109 105 167 283 345 330 331 340 350 326 322 313 312 315 324 324 321 311 308 305 301 303 311 306 297 302 306 310 307 308 303 326 337 315 307 301 301 306 279
140 134 135 127 132 167 146 268 296 282 19 347 336 333 327 327 332 331 329 316 311 307 300 294 302 318 304 301 299 296 291 300 308 302 302 302 311 306 295 304 300 297 279
133 141 144 144 78 34 11 331 345 354 354 4 353 339 329 333 331 333 317 311 302 288 305 319 312 306 310 304 306 320 320 317 316 329 315 310 307 302 295 287 276 292 290
136 123 101 57 10 354 12 22 29 56 40 7 351 334 337 342 338 328 322 322 318 323 331 322 319 315 314 317 324 325 333 326 329 323 311 306 297 297 299 304 286 273 281